| time (UTC) | temp C | wind direction | speed KPH | gust KPH | rain 1hr cm | rain 24hr cm | rain mn cm | humidity % | barometer mb |
| 20260508181557 | 13 | 192 | 6.4 | 16.1 | 0.00 | 0.00 | 0.00 | 34 | 1003.3 |
| 20260508180052 | 13 | 290 | 3.2 | 22.5 | 0.00 | 0.00 | 0.00 | 35 | 1003.8 |
| 20260508174610 | 12 | 275 | 4.8 | 19.3 | 0.00 | 0.00 | 0.00 | 34 | 1003.8 |
| 20260508173051 | 12 | 174 | 3.2 | 17.7 | 0.00 | 0.00 | 0.00 | 34 | 1004.0 |
| 20260508171557 | 12 | 232 | 4.8 | 20.9 | 0.00 | 0.00 | 0.00 | 34 | 1004.5 |
| 20260508170054 | 12 | 200 | 6.4 | 22.5 | 0.00 | 0.00 | 0.00 | 36 | 1004.7 |
| 20260508164552 | 13 | 256 | 4.8 | 12.9 | 0.00 | 0.00 | 0.00 | 34 | 1004.8 |
| 20260508163051 | 12 | 261 | 8.0 | 20.9 | 0.00 | 0.00 | 0.00 | 33 | 1005.1 |
| 20260508161551 | 13 | 317 | 3.2 | 16.1 | 0.00 | 0.00 | 0.00 | 35 | 1005.2 |
| 20260508160053 | 12 | 246 | 3.2 | 19.3 | 0.00 | 0.00 | 0.00 | 38 | 1005.4 |
| 20260508154551 | 12 | 231 | 4.8 | 11.3 | 0.00 | 0.00 | 0.00 | 34 | 1005.6 |
| 20260508153047 | 11 | 244 | 3.2 | 16.1 | 0.00 | 0.00 | 0.00 | 37 | 1005.9 |
| 20260508151557 | 11 | 293 | 3.2 | 14.5 | 0.00 | 0.00 | 0.00 | 37 | 1006.1 |
| 20260508150050 | 11 | 15 | 3.2 | 16.1 | 0.00 | 0.00 | 0.00 | 39 | 1006.0 |
| 20260508144552 | 10 | 283 | 3.2 | 12.9 | 0.00 | 0.00 | 0.00 | 42 | 1006.2 |
| 20260508143101 | 9 | 261 | 3.2 | 9.7 | 0.00 | 0.00 | 0.00 | 47 | 1006.3 |
| 20260508141556 | 8 | 164 | 0.0 | 9.7 | 0.00 | 0.00 | 0.00 | 50 | 1006.5 |
| 20260508140059 | 7 | 288 | 3.2 | 12.9 | 0.00 | 0.00 | 0.00 | 54 | 1006.7 |
| 20260508134554 | 6 | 175 | 1.6 | 9.7 | 0.00 | 0.00 | 0.00 | 59 | 1006.7 |
| 20260508133057 | 5 | 230 | 1.6 | 8.0 | 0.00 | 0.00 | 0.00 | 61 | 1006.9 |
| 20260508131557 | 3 | 242 | 0.0 | 4.8 | 0.00 | 0.00 | 0.00 | 67 | 1006.9 |
| 20260508130103 | 2 | 32 | 0.0 | 3.2 | 0.00 | 0.00 | 0.00 | 69 | 1007.1 |
| 20260508124556 | 1 | 0 | 0.0 | 3.2 | 0.00 | 0.00 | 0.00 | 73 | 1007.0 |
| 20260508123057 | 0 | 0 | 0.0 | 0.0 | 0.00 | 0.00 | 0.00 | 78 | 1007.0 |
| 20260508121557 | -1 | 0 | 0.0 | 0.0 | 0.00 | 0.00 | 0.00 | 85 | 1007.0 |
| 20260508120054 | -3 | 0 | 0.0 | 0.0 | 0.00 | 0.00 | 0.00 | 89 | 1006.9 |
| 20260508114552 | -4 | 0 | 0.0 | 0.0 | 0.00 | 0.00 | 0.00 | 90 | 1007.0 |
| 20260508113050 | -5 | 0 | 0.0 | 0.0 | 0.00 | 0.00 | 0.00 | 91 | 1006.9 |
| 20260508111552 | -5 | 0 | 0.0 | 0.0 | 0.00 | 0.00 | 0.00 | 90 | 1006.9 |
| 20260508110055 | -5 | 0 | 0.0 | 0.0 | 0.00 | 0.00 | 0.00 | 90 | 1007.1 |
| 20260508104600 | -5 | 0 | 0.0 | 0.0 | 0.00 | 0.00 | 0.00 | 89 | 1006.9 |
| 20260508103052 | -5 | 0 | 0.0 | 0.0 | 0.00 | 0.00 | 0.00 | 89 | 1007.0 |
| 20260508101554 | -5 | 0 | 0.0 | 0.0 | 0.00 | 0.00 | 0.00 | 89 | 1007.1 |
| 20260508100051 | -5 | 0 | 0.0 | 0.0 | 0.00 | 0.00 | 0.00 | 89 | 1007.1 |
| 20260508094600 | -5 | 0 | 0.0 | 0.0 | 0.00 | 0.00 | 0.00 | 89 | 1007.0 |
| 20260508093100 | -4 | 0 | 0.0 | 0.0 | 0.00 | 0.00 | 0.00 | 88 | 1007.2 |
| 20260508091604 | -4 | 0 | 0.0 | 0.0 | 0.00 | 0.00 | 0.00 | 88 | 1007.1 |
| 20260508090111 | -4 | 0 | 0.0 | 0.0 | 0.00 | 0.00 | 0.00 | 88 | 1007.0 |
| 20260508084557 | -4 | 0 | 0.0 | 0.0 | 0.00 | 0.00 | 0.00 | 87 | 1007.0 |
| 20260508083055 | -4 | 0 | 0.0 | 0.0 | 0.00 | 0.00 | 0.00 | 87 | 1007.1 |
| 20260508081610 | -3 | 0 | 0.0 | 0.0 | 0.00 | 0.00 | 0.00 | 87 | 1007.2 |
| 20260508080051 | -3 | 0 | 0.0 | 0.0 | 0.00 | 0.00 | 0.00 | 86 | 1007.4 |
| 20260508074551 | -3 | 0 | 0.0 | 0.0 | 0.00 | 0.00 | 0.00 | 86 | 1007.3 |
| 20260508073100 | -3 | 0 | 0.0 | 0.0 | 0.00 | 0.00 | 0.00 | 85 | 1007.6 |
| 20260508071613 | -3 | 0 | 0.0 | 0.0 | 0.00 | 0.00 | 0.00 | 84 | 1007.6 |
| 20260508070058 | -3 | 0 | 0.0 | 0.0 | 0.00 | 0.00 | 0.00 | 84 | 1007.8 |
| 20260508064553 | -3 | 0 | 0.0 | 0.0 | 0.00 | 0.00 | 0.00 | 84 | 1007.9 |
| 20260508063050 | -3 | 0 | 0.0 | 0.0 | 0.00 | 0.00 | 0.00 | 82 | 1008.1 |
| 20260508061551 | -3 | 0 | 0.0 | 0.0 | 0.00 | 0.00 | 0.00 | 82 | 1008.3 |
| 20260508060051 | -3 | 0 | 0.0 | 0.0 | 0.00 | 0.00 | 0.00 | 81 | 1008.4 |
| 20260508054602 | -2 | 0 | 0.0 | 0.0 | 0.00 | 0.00 | 0.00 | 80 | 1008.6 |
| 20260508053053 | -2 | 0 | 0.0 | 0.0 | 0.00 | 0.00 | 0.00 | 78 | 1008.6 |
| 20260508051550 | -2 | 0 | 0.0 | 0.0 | 0.00 | 0.00 | 0.00 | 77 | 1008.6 |
| 20260508050051 | -2 | 0 | 0.0 | 0.0 | 0.00 | 0.00 | 0.00 | 76 | 1008.9 |
| 20260508044557 | -1 | 0 | 0.0 | 0.0 | 0.00 | 0.00 | 0.00 | 75 | 1008.7 |
| 20260508043050 | -1 | 0 | 0.0 | 0.0 | 0.00 | 0.00 | 0.00 | 75 | 1008.9 |
| 20260508041551 | -1 | 0 | 0.0 | 0.0 | 0.00 | 0.00 | 0.00 | 73 | 1009.1 |
| 20260508040059 | -1 | 0 | 0.0 | 0.0 | 0.00 | 0.00 | 0.00 | 70 | 1009.0 |
| 20260508034552 | 0 | 0 | 0.0 | 0.0 | 0.00 | 0.00 | 0.00 | 69 | 1009.1 |
| 20260508033112 | 0 | 0 | 0.0 | 0.0 | 0.00 | 0.00 | 0.00 | 66 | 1009.2 |
| 20260508031549 | 0 | 0 | 0.0 | 0.0 | 0.00 | 0.00 | 0.00 | 64 | 1009.1 |
| 20260508030108 | 1 | 0 | 0.0 | 0.0 | 0.00 | 0.00 | 0.00 | 63 | 1009.1 |
| 20260508024616 | 1 | 0 | 0.0 | 0.0 | 0.00 | 0.00 | 0.00 | 59 | 1009.1 |
| 20260508023051 | 2 | 0 | 0.0 | 0.0 | 0.00 | 0.00 | 0.00 | 56 | 1009.0 |
| 20260508021548 | 3 | 0 | 0.0 | 0.0 | 0.00 | 0.00 | 0.00 | 53 | 1009.1 |
| 20260508020105 | 4 | 0 | 0.0 | 0.0 | 0.00 | 0.00 | 0.00 | 51 | 1009.1 |
| 20260508014556 | 5 | 0 | 0.0 | 0.0 | 0.00 | 0.00 | 0.00 | 47 | 1008.7 |
| 20260508013106 | 5 | 0 | 0.0 | 3.2 | 0.00 | 0.00 | 0.00 | 45 | 1008.7 |
| 20260508011603 | 6 | 0 | 0.0 | 3.2 | 0.00 | 0.00 | 0.00 | 43 | 1008.6 |
| 20260508010105 | 6 | 19 | 0.0 | 11.3 | 0.00 | 0.00 | 0.00 | 41 | 1008.5 |
| 20260508004552 | 7 | 352 | 6.4 | 17.7 | 0.00 | 0.00 | 0.00 | 40 | 1008.3 |
| 20260508003053 | 7 | 12 | 3.2 | 17.7 | 0.00 | 0.00 | 0.00 | 39 | 1008.4 |
| 20260508001559 | 8 | 16 | 3.2 | 14.5 | 0.00 | 0.00 | 0.00 | 39 | 1008.3 |
| 20260508000057 | 8 | 11 | 3.2 | 17.7 | 0.00 | 0.00 | 0.00 | 37 | 1008.4 |
| 20260507234557 | 8 | 305 | 3.2 | 17.7 | 0.00 | 0.00 | 0.00 | 39 | 1008.3 |
| 20260507233055 | 8 | 207 | 3.2 | 16.1 | 0.00 | 0.00 | 0.00 | 38 | 1008.2 |
| 20260507231557 | 9 | 13 | 12.9 | 37.0 | 0.00 | 0.00 | 0.00 | 36 | 1008.1 |
| 20260507230057 | 9 | 286 | 3.2 | 22.5 | 0.00 | 0.00 | 0.00 | 38 | 1008.5 |
| 20260507224555 | 8 | 263 | 3.2 | 16.1 | 0.00 | 0.00 | 0.00 | 40 | 1008.4 |
| 20260507223058 | 8 | 55 | 3.2 | 14.5 | 0.00 | 0.00 | 0.00 | 39 | 1008.3 |
| 20260507221552 | 8 | 0 | 8.0 | 17.7 | 0.00 | 0.00 | 0.00 | 37 | 1008.4 |
| 20260507220055 | 8 | 10 | 3.2 | 16.1 | 0.00 | 0.00 | 0.00 | 41 | 1008.4 |
| 20260507214556 | 8 | 271 | 6.4 | 30.6 | 0.00 | 0.00 | 0.00 | 40 | 1008.5 |
| 20260507213056 | 8 | 259 | 6.4 | 20.9 | 0.00 | 0.00 | 0.00 | 38 | 1008.6 |
| 20260507211554 | 8 | 360 | 4.8 | 17.7 | 0.00 | 0.00 | 0.00 | 40 | 1008.6 |
| 20260507210050 | 9 | 252 | 6.4 | 27.4 | 0.00 | 0.00 | 0.00 | 40 | 1008.8 |
| 20260507204550 | 9 | 297 | 6.4 | 25.7 | 0.00 | 0.00 | 0.00 | 39 | 1008.7 |
| 20260507203053 | 8 | 267 | 6.4 | 22.5 | 0.00 | 0.00 | 0.00 | 40 | 1008.8 |
| 20260507201552 | 8 | 317 | 4.8 | 16.1 | 0.00 | 0.00 | 0.00 | 46 | 1009.0 |
| 20260507200055 | 8 | 254 | 4.8 | 14.5 | 0.00 | 0.00 | 0.00 | 43 | 1008.9 |
| 20260507194556 | 7 | 333 | 3.2 | 20.9 | 0.00 | 0.00 | 0.00 | 45 | 1008.9 |
| 20260507193052 | 7 | 311 | 4.8 | 19.3 | 0.00 | 0.00 | 0.00 | 45 | 1008.9 |
| 20260507191602 | 8 | 360 | 8.0 | 17.7 | 0.00 | 0.00 | 0.00 | 47 | 1008.8 |
| 20260507190055 | 8 | 0 | 3.2 | 16.1 | 0.00 | 0.00 | 0.00 | 49 | 1009.0 |
| 20260507184556 | 7 | 265 | 4.8 | 16.1 | 0.00 | 0.00 | 0.00 | 52 | 1009.3 |
| 20260507183101 | 6 | 11 | 3.2 | 12.9 | 0.00 | 0.00 | 0.00 | 56 | 1009.4 |